STARLINK-32344, 61719

Orbit data source: Space-Track

STARLINK-32344, 61719 is a payload satellite owned by SpaceX/Seattle (US) in LEO that was launched on Wed, 30 Oct 2024 UTC via an FALCON 9 launch vehicle from the Air Force Eastern Test Range (AFETR). Payload-class satellites include a variety of spacecraft equipped with specific instruments for various scientific and technological missions. These include communications satellites like Starlink; space stations such as the ISS; scientific satellites like the Hubble; Earth observation satellites from companies like Planet Labs, Umbra, and HawkEye 360; GPS; miniature CubeSats for education and research; and military/defense satellites.

Loading next visibility...
Identifier
61719, 2024-196N
Orbit
LEO
Country
Flag of USUS
Related business
Manufacturer
SpaceX/Seattle
Mission
Operational Commercial Communications
Bus & Motor
STARLINK V2M, Unknown motor
Mass
730 kg wet, ~700 kg dry
Launch date (UTC)
2024-10-30 (10 months ago)
Launch vehicle
FALCON 9
Launch site
Air Force Eastern Test Range (AFETR)
Object type
Payload
Rocket body
Debris
Shape & HBR
Box + 2 Pan, 14.5 m
Radar Cross Section
36.964 m², Large (>1 m²)

Expand to show TLE details & history
Last TLE update: 17 hours ago

TLE from 17 hours ago
0 STARLINK-32344
1 61719U 24196N   25242.05305401 -.00000320  00000-0  13297-5 0  9992
2 61719  53.1593 271.6513 0001164  95.9617 264.1516 15.30193360 47812
Epoch: 2025-08-30T01:16Z
TLE epoch observation values (Epoch: 2025-08-30T01:16:23.866Z)
Latitude
-0.00006°
Longitude
-85.94106°
Altitude
476.216 km
Speed
7.629 km/s
True Right ascension
18h 06m 36s
True Declination
0° 00' 00"
Sunlit
Object was in full shadow at epoch
Visualization orbit readout
Latitude
Unknown
Longitude
Unknown
Altitude
Unknown
Speed
Unknown
Apparent Right ascension
Unknown
Apparent Declination
Unknown
Sunlit
N/A
Visualization observer readout
Local Sidereal Time
09:24:51
Azimuth
Unknown
Elevation
Unknown
Doppler factor
Unknown
Orbital elements
Apogee altitude
476.289 km
Perigee altitude
474.694 km
Semi-major axis
6,853.628 km
Eccentricity
0.00012
Inclination
53.1593°
RAAN
271.6513°
Arg. of periapsis
95.9617°
True anomaly
264.13833°
Mean anomaly
264.1516°
Eccentric anomaly
264.14497°
Mean motion
3.82527 °/min
Orbital period
94.11 mins
BSTAR
0.0000013297
Loading maneuver chart data...
Computing Atmospheric mass density...
Loading historical data...
Loading historical data...
Loading historical data...
Loading historical data...
Loading historical data...
Loading historical data...
Loading historical data...

Documentation

Showing up to 5 results
|